Pitt Greenville Airport Greenville US
ICAO: KPGV
IATA: PGV
Category: Medium
Scheduled Services: No

Elevation: 26 ft
TransAlt. 18000 ft.

Airport Communications:
AWOS 3:128.425
CLNC DEL:122.35
WASHINGTON CNTR:135.5
CTAF/UNICOM:122.8

KPGV Zoom In..

If you have problems with the map follow the link
https://www.worldairports.se/pages/airport.php?
ICAO=KPGV

Runways:

(A) RW 02 length 6505 ft width 150 ft
---- / hdg 17

(B) RW 08 length 4997 ft width 150 ft
---- / hdg 76

(C) RW 15 length 2687 ft width 150 ft
---- / hdg 137

(D) RW 20 length 6505 ft width 150 ft
ILS 110.70 / hdg 197

(E) RW 26 length 4997 ft width 150 ft
---- / hdg 256

(F) RW 33 length 2687 ft width 150 ft
---- / hdg 317

Location; KPGV
Day. 12 / Time. 07.55 Zulu
* Altimeter: 30.56
* Temperature: -01° c. -30.2°f.
* Wind from: 000° Speed 00 kn.
Dewpoint: -01° c.
Visibility: 10 Statute Miles.
Clouds: Clear (automated report).

KPGV 120755Z AUTO 00000KT 10SM CLR M01/M01 A3056 RMK AO2


Wind - Calm.

 
 
jpsmedia worldairports.se 2019   terms of use